[[{"header":{"parameterUnit":"m.s-1","parameterCategory":1,"la1":30.2991,"la2":30.254,"lo1":-89.0895,"lo2":-89.0444,"dy":0.0017,"dx":0.0017,"nx":28,"ny":28,"refTime":"2025-06-13T03:00:00:Z","depth":0,"parameterNumber":2,"parameterNumberName":"U-component_of_WINDS"},"data":[0,0,0,0,0,0,0,0,0,0,0,0,0,0,0,0,0,0,0,0,0,0,0,0,0,0,0,0,0,0,0,0,0,0,0,0,0,0,0,0,0,0,0,0,0,0,0,0,0,0,0,0,0,0,0,0,0,0,0.7361,0.7361,0,0.7314,0.7314,0.7313,0.7268,0.7267,0.7266,0.7266,0.7218,0.7218,0.7217,0,0,0,0,0,0,0,0,0,0,0,0,0,0.7413,0.7412,0.7361,0.7361,0.736,0.7314,0.7314,0.7313,0.7268,0.7267,0.7266,0.7266,0.7219,0.7218,0.7217,0,0,0,0,0,0,0,0,0,0,0,0,0,0.7381,0.7412,0.7362,0.7332,0.7329,0.7314,0.7314,0.7313,0.7268,0.7267,0.7266,0.7265,0.7219,0.7218,0.7217,0.7228,0,0,0.7213,0.7213,0,0,0,0,0,0,0,0,0.7383,0.7379,0.7337,0.7334,0.7331,0.7296,0.7314,0.7284,0.7268,0.7291,0.7266,0.7265,0.7245,0.7242,0.7235,0.7225,0.7223,0.7213,0.7213,0.7212,0.7212,0,0,0,0,0,0,0,0.7385,0.7381,0.7343,0.7336,0.7333,0.7321,0.7316,0.7308,0.7273,0.7289,0.7286,0.7281,0.7243,0.7236,0.7233,0.7223,0.7213,0.7212,0.7212,0.7211,0.722,0.7221,0,0,0,0,0,0,0.7391,0.7383,0.7344,0.7341,0.7355,0.7321,0.7315,0.7308,0.7273,0.7267,0.7281,0.7279,0.7238,0.7235,0.7231,0.7242,0.7212,0.7211,0.7211,0.7219,0.722,0.7221,0,0,0,0,0,0,0.7393,0.7388,0.7346,0.7361,0.7355,0.7321,0.7314,0.7307,0.73,0.7268,0.7261,0.728,0.7237,0.7233,0.7229,0.7239,0.7211,0.721,0.7218,0.7219,0.7221,0.7263,0,0,0,0,0,0,0.7394,0.7389,0.7393,0.7361,0.7354,0.7344,0.7314,0.7307,0.7298,0.7294,0.7265,0.7259,0.7236,0.7231,0.7228,0.7237,0.7209,0.7217,0.7219,0.722,0.726,0.7265,0.7269,0,0,0,0,0,0.7396,0.7407,0.7393,0.7389,0.7358,0.7345,0.7341,0.7314,0.7299,0.7303,0.7282,0.726,0.7239,0.7231,0.7227,0.7236,0.7216,0.7218,0.722,0.7258,0.7264,0.7269,0,0,0,0,0,0,0.744,0.7402,0.7387,0.7387,0.737,0.7337,0.7341,0.7321,0.7307,0.7304,0.7271,0.7265,0.7265,0.725,0.7242,0.7245,0.7224,0.7226,0.7255,0.726,0.7265,0.7268,0.7208,0,0,0,0,0,0.745,0.7443,0.741,0.7413,0.7405,0.7375,0.7368,0.7349,0.7329,0.7322,0.73,0.7283,0.7272,0.7265,0.7253,0.7258,0.7251,0.7263,0.7267,0.7271,0.7273,0.7274,0.7279,0.7227,0.7227,0.7227,0,0,0.747,0.7448,0.7446,0.7422,0.7406,0.7399,0.7369,0.7363,0.7357,0.7321,0.7315,0.7299,0.7277,0.7277,0.7276,0.7265,0.7285,0.7274,0.7277,0.7276,0.7276,0.7281,0.7286,0.7229,0.7229,0.7228,0,0,0.7503,0.7486,0.7487,0.7472,0.7448,0.7427,0.7428,0.7398,0.7386,0.738,0.7353,0.7346,0.7328,0.7313,0.7304,0.7331,0.7311,0.7328,0.7353,0.7354,0.7358,0.7362,0.7371,0.7375,0.733,0.733,0.733,0,0.7531,0.7519,0.749,0.7485,0.7475,0.7442,0.7443,0.743,0.7403,0.7397,0.7385,0.7362,0.7345,0.7341,0.7348,0.7341,0.734,0.7331,0.736,0.7363,0.7366,0.7374,0.7378,0.7332,0.7332,0.7332,0.7332,0,0.7554,0.7547,0.755,0.7525,0.7516,0.7514,0.7485,0.7479,0.7461,0.7442,0.7436,0.7415,0.7398,0.7396,0.7378,0.7389,0.7383,0.7366,0.7344,0.7373,0.7381,0.7384,0.7336,0.7335,0.7334,0.7333,0,0,0.7613,0.7572,0.7574,0.7562,0.7534,0.7527,0.7524,0.7507,0.7503,0.7486,0.7483,0.7468,0.7452,0.7441,0.7421,0.7423,0.7446,0.7405,0.7404,0.7413,0.7457,0.7469,0.7474,0.7432,0.7433,0.7433,0.7458,0,0.764,0.7632,0.7606,0.7606,0.7598,0.7567,0.7564,0.7546,0.7529,0.752,0.75,0.7491,0.747,0.7463,0.7463,0.7443,0.7454,0.7441,0.7428,0.7428,0.7434,0.7478,0.7491,0.7516,0.7461,0.7462,0.7462,0,0.7671,0.7656,0.7655,0.7627,0.7623,0.7621,0.7603,0.7595,0.7575,0.7562,0.755,0.7528,0.7523,0.7503,0.7496,0.7487,0.7481,0.747,0.7471,0.7468,0.7447,0.7476,0.7523,0.7527,0.7466,0.7466,0.7466,0,0.7714,0.7693,0.769,0.7681,0.7648,0.7647,0.7634,0.7612,0.7604,0.7589,0.7583,0.7568,0.7559,0.7548,0.7523,0.7511,0.7518,0.7497,0.7507,0.7508,0.751,0.751,0.7556,0.7507,0.7507,0.7507,0.7507,0,0.7747,0.7747,0.7708,0.7706,0.7706,0.7676,0.7677,0.766,0.7642,0.7636,0.7608,0.7603,0.757,0.7562,0.7542,0.7539,0.7535,0.7525,0.7519,0.7527,0.7528,0.7522,0.7519,0.7508,0.7507,0.7507,0.7507,0,0.7793,0.7768,0.7762,0.7731,0.7724,0.7725,0.7699,0.7696,0.7676,0.7669,0.7666,0.7636,0.7625,0.7598,0.758,0.7567,0.7568,0.7559,0.7575,0.7572,0.7584,0.7583,0.7627,0.7631,0.758,0.758,0.7581,0,0.7816,0.7815,0.7785,0.7779,0.7766,0.7757,0.7749,0.772,0.7712,0.7688,0.7688,0.7674,0.7662,0.7645,0.7622,0.7608,0.7597,0.7614,0.7595,0.7603,0.7597,0.7597,0.7597,0.7618,0.7619,0.7619,0.762,0,0.7858,0.7846,0.7834,0.7818,0.7808,0.7795,0.7779,0.7776,0.7743,0.7736,0.7724,0.7714,0.7695,0.7682,0.7664,0.765,0.763,0.7626,0.7628,0.7635,0.7644,0.7639,0.7586,0.7625,0.7624,0.7624,0.7624,0.7624,0.7893,0.7891,0.7869,0.7857,0.7843,0.7829,0.7825,0.7805,0.7794,0.7777,0.776,0.775,0.7729,0.7703,0.7691,0.7682,0.7672,0.7674,0.7675,0.7676,0.7679,0.7646,0.7679,0.7679,0.7679,0.7679,0.7679,0,0.7933,0.7918,0.7907,0.7887,0.7877,0.7859,0.7841,0.7834,0.7825,0.7808,0.7796,0.7783,0.777,0.7746,0.7731,0.7728,0.7719,0.7725,0.7725,0.7722,0.7689,0.7689,0.7734,0.7734,0.7734,0.7734,0.7734,0.7734,0.7953,0.7949,0.7934,0.7922,0.7907,0.7896,0.7888,0.7875,0.7861,0.7847,0.7836,0.782,0.78,0.7783,0.7771,0.7764,0.776,0.7769,0.776,0.773,0.7724,0.7719,0.7719,0.7769,0.7769,0.7793,0.7793,0.7793]},{"header":{"parameterUnit":"m.s-1","parameterCategory":1,"la1":30.2991,"la2":30.254,"lo1":-89.0895,"lo2":-89.0444,"dy":0.0017,"dx":0.0017,"nx":28,"ny":28,"refTime":"2025-06-13T03:00:00:Z","depth":0,"parameterNumber":3,"parameterNumberName":"V-component_of_WINDS"},"data":[0,0,0,0,0,0,0,0,0,0,0,0,0,0,0,0,0,0,0,0,0,0,0,0,0,0,0,0,0,0,0,0,0,0,0,0,0,0,0,0,0,0,0,0,0,0,0,0,0,0,0,0,0,0,0,0,0,0,3.1292,3.1293,0,3.1339,3.1339,3.134,3.1343,3.1343,3.1342,3.1342,3.1386,3.1387,3.1389,0,0,0,0,0,0,0,0,0,0,0,0,0,3.1203,3.1205,3.1292,3.1293,3.1293,3.1339,3.1339,3.134,3.1343,3.1343,3.1342,3.1342,3.1385,3.1387,3.1389,0,0,0,0,0,0,0,0,0,0,0,0,0,3.1245,3.1205,3.1292,3.1301,3.1302,3.1339,3.1339,3.134,3.1343,3.1343,3.1342,3.1341,3.1384,3.1387,3.1389,3.1419,0,0,3.1397,3.1398,0,0,0,0,0,0,0,0,3.1242,3.1248,3.1299,3.13,3.1302,3.1335,3.1324,3.1367,3.1344,3.1328,3.1342,3.1341,3.1369,3.1373,3.1383,3.1422,3.1423,3.1397,3.1398,3.1399,3.14,0,0,0,0,0,0,0,3.124,3.1246,3.131,3.1299,3.1301,3.1301,3.1306,3.1332,3.1352,3.1329,3.1329,3.1335,3.137,3.1381,3.1384,3.1424,3.1397,3.1399,3.1401,3.1402,3.1491,3.1492,0,0,0,0,0,0,3.1235,3.1244,3.1309,3.1312,3.127,3.1303,3.1309,3.1325,3.1352,3.1355,3.1336,3.1335,3.1377,3.1381,3.1385,3.1424,3.1399,3.1402,3.1403,3.149,3.1491,3.1492,0,0,0,0,0,0,3.1234,3.1241,3.1307,3.1278,3.1286,3.1306,3.1323,3.1326,3.1337,3.1357,3.136,3.1343,3.1376,3.1382,3.1412,3.1425,3.1403,3.1405,3.1489,3.149,3.1492,3.1499,0,0,0,0,0,0,3.1231,3.1241,3.1253,3.1278,3.1288,3.1333,3.1324,3.1327,3.1342,3.1341,3.1365,3.1368,3.1376,3.1408,3.1414,3.1428,3.1407,3.1488,3.149,3.1491,3.1498,3.1501,3.1503,0,0,0,0,0,3.1228,3.1252,3.1253,3.1261,3.1304,3.1334,3.1339,3.135,3.1343,3.1355,3.1368,3.1367,3.1423,3.1411,3.1418,3.1433,3.1487,3.1489,3.1491,3.1497,3.15,3.1503,0,0,0,0,0,0,3.1226,3.1255,3.1257,3.1291,3.131,3.1335,3.135,3.1353,3.1373,3.1372,3.1382,3.1388,3.1417,3.1428,3.1414,3.1464,3.1454,3.1458,3.1456,3.146,3.1462,3.1459,3.1409,0,0,0,0,0,3.123,3.1253,3.1277,3.1304,3.1314,3.1331,3.1344,3.135,3.137,3.1378,3.1393,3.1411,3.1433,3.1447,3.1468,3.15,3.1505,3.1514,3.1516,3.1518,3.1521,3.154,3.1544,3.1499,3.1499,3.1499,0,0,3.1237,3.1256,3.127,3.1304,3.132,3.1343,3.1337,3.1361,3.1379,3.1381,3.1411,3.1422,3.1443,3.1475,3.1489,3.1484,3.1535,3.1521,3.1522,3.1524,3.1542,3.1547,3.155,3.15,3.15,3.15,0,0,3.1263,3.1279,3.1304,3.1321,3.1346,3.1357,3.1363,3.1387,3.1396,3.1426,3.1429,3.1448,3.1485,3.1501,3.1513,3.1546,3.1547,3.1553,3.1566,3.1585,3.1588,3.1591,3.1604,3.1608,3.1556,3.1556,3.1556,0,3.1268,3.1304,3.1316,3.1342,3.1357,3.1362,3.1387,3.1402,3.1432,3.1442,3.1436,3.1484,3.1498,3.1534,3.1542,3.1552,3.1559,3.155,3.1587,3.159,3.1593,3.1605,3.161,3.1556,3.1556,3.1556,3.1556,0,3.1311,3.1336,3.1353,3.1383,3.14,3.1425,3.144,3.1456,3.1461,3.1473,3.1503,3.1521,3.1547,3.1555,3.156,3.1592,3.1588,3.1585,3.1575,3.1598,3.1609,3.1614,3.1557,3.1557,3.1557,3.1557,0,0,3.1335,3.1374,3.138,3.1394,3.1423,3.1442,3.1467,3.1493,3.1507,3.1527,3.1548,3.158,3.1578,3.1592,3.1598,3.1614,3.164,3.1609,3.161,3.1614,3.1677,3.168,3.1685,3.1641,3.1642,3.1642,3.1676,0,3.1364,3.1411,3.1423,3.1462,3.1486,3.1492,3.1514,3.1533,3.1545,3.1566,3.1578,3.1601,3.1596,3.1604,3.162,3.1634,3.1653,3.1631,3.166,3.1661,3.1655,3.1691,3.1693,3.1724,3.168,3.1681,3.1681,0,3.1404,3.1428,3.147,3.1497,3.1507,3.1527,3.1552,3.1572,3.1594,3.1602,3.1619,3.1624,3.165,3.1639,3.1675,3.166,3.1672,3.1681,3.1682,3.1685,3.1672,3.1695,3.1734,3.1738,3.1688,3.1688,3.1687,0,3.1419,3.1461,3.1492,3.1504,3.1535,3.1549,3.1563,3.1584,3.16,3.1622,3.1632,3.1656,3.1669,3.1688,3.1699,3.169,3.1734,3.1724,3.1741,3.174,3.1749,3.1749,3.1791,3.1757,3.1757,3.1757,3.1757,0,3.145,3.1476,3.1499,3.1518,3.1547,3.1561,3.1589,3.1602,3.1621,3.1643,3.1649,3.1668,3.1682,3.1703,3.1712,3.1741,3.1747,3.1753,3.1755,3.1753,3.1752,3.1761,3.1759,3.1758,3.1758,3.1758,3.1758,0,3.1471,3.1488,3.1522,3.155,3.1558,3.1578,3.1601,3.162,3.1632,3.1659,3.1666,3.1685,3.1711,3.1724,3.1755,3.1761,3.1794,3.1794,3.1787,3.1788,3.1804,3.1802,3.1853,3.1861,3.1822,3.1822,3.1823,0,3.149,3.151,3.1541,3.1557,3.1571,3.1596,3.1612,3.1626,3.1643,3.1671,3.1686,3.1712,3.1734,3.1775,3.179,3.1815,3.1816,3.1832,3.182,3.1817,3.1817,3.1816,3.1818,3.1834,3.1835,3.1835,3.1835,0,3.1522,3.153,3.1554,3.1582,3.1602,3.1624,3.1645,3.1657,3.1675,3.1693,3.1721,3.1738,3.1771,3.1797,3.1823,3.1836,3.1839,3.184,3.1845,3.1842,3.1838,3.1841,3.1793,3.1838,3.1838,3.1838,3.1837,3.1837,3.1543,3.1561,3.1587,3.1614,3.1632,3.1653,3.1672,3.1688,3.1711,3.1741,3.1747,3.1776,3.1798,3.1834,3.1847,3.187,3.1866,3.1873,3.1875,3.1877,3.1878,3.1834,3.1874,3.1874,3.1874,3.1874,3.1874,0,3.1575,3.1593,3.1618,3.1649,3.167,3.1673,3.1697,3.1715,3.1741,3.1762,3.1784,3.1816,3.1841,3.186,3.1886,3.19,3.1902,3.1906,3.1906,3.1909,3.1879,3.1873,3.1905,3.1905,3.1905,3.1905,3.1905,3.1905,3.1595,3.1627,3.1638,3.168,3.1696,3.1726,3.174,3.1759,3.1776,3.1812,3.1834,3.1847,3.1867,3.1895,3.1918,3.1923,3.1932,3.1937,3.1941,3.1914,3.191,3.1907,3.1901,3.1939,3.1939,3.1969,3.1969,3.1969]}]]